[[{"header":{"parameterUnit":"m.s-1","parameterCategory":1,"la1":30.2991,"la2":30.254,"lo1":-89.0895,"lo2":-89.0444,"dy":0.0017,"dx":0.0017,"nx":28,"ny":28,"refTime":"2024-05-09T21:00:00:Z","depth":0,"parameterNumber":2,"parameterNumberName":"U-component_of_WINDS"},"data":[0,0,0,0,0,0,0,0,0,0,0,0,0,0,0,0,0,0,0,0,0,0,0,0,0,0,0,0,0,0,0,0,0,0,0,0,0,0,0,0,0,0,0,0,0,0,0,0,0,0,0,0,0,0,0,0,0,0,3.4561,3.4563,0,3.4722,3.4724,3.4726,3.4719,3.4716,3.4714,3.4712,3.4879,3.4885,3.4892,0,0,0,0,0,0,0,0,0,0,0,0,0,3.425,3.4256,3.4561,3.4563,3.4565,3.4722,3.4724,3.4726,3.4719,3.4716,3.4714,3.4711,3.4877,3.4884,3.4892,0,0,0,0,0,0,0,0,0,0,0,0,0,3.4396,3.4258,3.4561,3.458,3.4584,3.4721,3.4724,3.4727,3.472,3.4716,3.4713,3.471,3.4874,3.4884,3.4893,3.5022,0,0,3.4923,3.4928,0,0,0,0,0,0,0,0,3.4387,3.4407,3.4576,3.4579,3.4583,3.4697,3.4676,3.4826,3.4721,3.4668,3.4712,3.4708,3.4821,3.4835,3.4873,3.503,3.5037,3.4924,3.493,3.4934,3.4937,0,0,0,0,0,0,0,3.4377,3.44,3.4625,3.4578,3.4583,3.4582,3.4599,3.4704,3.4762,3.4672,3.4672,3.4691,3.4823,3.4863,3.4877,3.504,3.4924,3.4933,3.4939,3.4943,3.5312,3.5316,0,0,0,0,0,0,3.4363,3.4392,3.462,3.463,3.4475,3.459,3.4609,3.4664,3.4761,3.4772,3.4694,3.469,3.4848,3.4865,3.4882,3.504,3.4934,3.4944,3.4949,3.5308,3.5313,3.5317,0,0,0,0,0,0,3.4356,3.4383,3.4613,3.4511,3.454,3.4599,3.4661,3.4669,3.471,3.4777,3.4787,3.4725,3.4846,3.4869,3.4988,3.5046,3.4948,3.4957,3.5304,3.531,3.5315,3.5357,0,0,0,0,0,0,3.4347,3.4381,3.443,3.4512,3.4546,3.4715,3.4664,3.4674,3.4726,3.4723,3.4809,3.482,3.4845,3.4973,3.4997,3.5058,3.4965,3.5299,3.5306,3.5313,3.5351,3.5364,3.5375,0,0,0,0,0,3.4336,3.4436,3.4432,3.446,3.4608,3.4719,3.4738,3.4765,3.4731,3.4781,3.4825,3.4817,3.5036,3.4985,3.5013,3.5077,3.5295,3.5304,3.5313,3.5345,3.5361,3.5374,0,0,0,0,0,0,3.436,3.4447,3.4444,3.4573,3.4638,3.4717,3.4781,3.478,3.4857,3.4851,3.4881,3.4901,3.502,3.5061,3.5003,3.5207,3.5161,3.5176,3.5177,3.5192,3.5204,3.5192,3.4973,0,0,0,0,0,3.4379,3.4461,3.4533,3.464,3.4673,3.4722,3.4771,3.4786,3.4855,3.4883,3.4935,3.5003,3.5087,3.5142,3.5223,3.5357,3.5376,3.5414,3.5426,3.5436,3.5448,3.5523,3.5541,3.5346,3.5346,3.5346,0,0,3.4422,3.448,3.453,3.4646,3.4699,3.4784,3.4745,3.4836,3.49,3.4897,3.5012,3.5053,3.5131,3.5258,3.5317,3.5295,3.5506,3.5447,3.5454,3.5462,3.5534,3.5552,3.5568,3.5352,3.5351,3.535,0,0,3.4543,3.4594,3.4689,3.4742,3.4822,3.4854,3.4877,3.4956,3.4983,3.5099,3.5099,3.5175,3.5319,3.5375,3.5422,3.5565,3.5561,3.559,3.5653,3.5725,3.574,3.5754,3.5805,3.5823,3.5602,3.5603,3.5603,0,3.4585,3.4712,3.4738,3.483,3.4882,3.4883,3.498,3.503,3.5133,3.5169,3.5143,3.5324,3.5377,3.5517,3.5552,3.559,3.5618,3.5581,3.5736,3.575,3.5763,3.5813,3.5832,3.5606,3.5605,3.5605,3.5605,0,3.4762,3.485,3.4917,3.5015,3.5074,3.5168,3.5209,3.5266,3.5276,3.5311,3.543,3.5493,3.5587,3.5621,3.5632,3.5764,3.5748,3.5729,3.5683,3.5785,3.5831,3.585,3.561,3.5609,3.5608,3.5607,0,0,3.4901,3.5013,3.5037,3.5082,3.517,3.5239,3.5333,3.5425,3.5474,3.5544,3.5625,3.5747,3.573,3.5784,3.5801,3.5864,3.5973,3.5837,3.584,3.5861,3.6123,3.6137,3.6158,3.5971,3.5975,3.5978,3.6116,0,3.5031,3.5198,3.5224,3.5371,3.5453,3.5455,3.5538,3.5601,3.5636,3.5712,3.5751,3.5837,3.5808,3.584,3.5903,3.5947,3.6026,3.5937,3.6047,3.6051,3.6027,3.6183,3.6198,3.6325,3.6135,3.6138,3.614,0,3.5205,3.528,3.5435,3.5512,3.5548,3.5621,3.5707,3.5779,3.5852,3.5873,3.5933,3.5943,3.6041,3.5991,3.6128,3.6067,3.6113,3.6142,3.6148,3.6159,3.6102,3.6199,3.6367,3.6386,3.6169,3.6167,3.6165,0,3.5292,3.5431,3.5542,3.558,3.5674,3.5725,3.5767,3.5835,3.5889,3.5965,3.6,3.6086,3.6134,3.6201,3.6234,3.6194,3.6369,3.6322,3.639,3.639,3.6427,3.6424,3.6605,3.6457,3.6456,3.6456,3.6456,0,3.5434,3.5529,3.5582,3.5651,3.5757,3.5787,3.5892,3.5932,3.5993,3.607,3.6077,3.6149,3.6189,3.6267,3.6293,3.6403,3.6424,3.6445,3.6451,3.6444,3.6442,3.6475,3.6468,3.6461,3.646,3.6459,3.6458,0,3.5549,3.5588,3.5709,3.5788,3.581,3.5885,3.5952,3.6019,3.6054,3.6151,3.6175,3.623,3.6322,3.6362,3.6476,3.6494,3.6619,3.6619,3.6595,3.6597,3.6663,3.6657,3.6873,3.6903,3.6734,3.6735,3.6737,0,3.5637,3.571,3.5796,3.5848,3.589,3.5974,3.6028,3.6061,3.6117,3.6205,3.6262,3.6354,3.643,3.6577,3.6628,3.6715,3.6717,3.6786,3.673,3.6721,3.6718,3.6713,3.6721,3.6797,3.6798,3.68,3.6801,0,3.579,3.5806,3.5884,3.597,3.6034,3.6103,3.6171,3.6213,3.6256,3.6319,3.6413,3.6472,3.6588,3.668,3.677,3.6813,3.6815,3.6818,3.6839,3.6833,3.6816,3.6826,3.6623,3.6813,3.6812,3.6811,3.681,3.681,3.5895,3.596,3.6031,3.6117,3.6171,3.6234,3.6301,3.6344,3.6423,3.6519,3.6534,3.6635,3.6706,3.6828,3.6875,3.6954,3.6937,3.6967,3.6974,3.6981,3.6986,3.6803,3.6971,3.6971,3.697,3.697,3.697,0,3.6048,3.6094,3.6173,3.6267,3.6336,3.6331,3.6405,3.6463,3.6551,3.6618,3.6692,3.68,3.6889,3.6947,3.7037,3.709,3.7093,3.7113,3.7109,3.712,3.6996,3.6969,3.7109,3.7109,3.7109,3.7109,3.7109,3.7109,3.6136,3.6246,3.627,3.6408,3.6453,3.6551,3.6594,3.6653,3.6706,3.6826,3.69,3.6937,3.7,3.7095,3.7177,3.7192,3.7225,3.7246,3.7259,3.7143,3.7128,3.7114,3.7089,3.7253,3.7253,3.7377,3.7378,3.7379]},{"header":{"parameterUnit":"m.s-1","parameterCategory":1,"la1":30.2991,"la2":30.254,"lo1":-89.0895,"lo2":-89.0444,"dy":0.0017,"dx":0.0017,"nx":28,"ny":28,"refTime":"2024-05-09T21:00:00:Z","depth":0,"parameterNumber":3,"parameterNumberName":"V-component_of_WINDS"},"data":[0,0,0,0,0,0,0,0,0,0,0,0,0,0,0,0,0,0,0,0,0,0,0,0,0,0,0,0,0,0,0,0,0,0,0,0,0,0,0,0,0,0,0,0,0,0,0,0,0,0,0,0,0,0,0,0,0,0,3.4994,3.4997,0,3.5216,3.5219,3.5221,3.5235,3.5233,3.523,3.5228,3.5458,3.5466,3.5474,0,0,0,0,0,0,0,0,0,0,0,0,0,3.4586,3.4593,3.4994,3.4997,3.5,3.5216,3.5219,3.5222,3.5236,3.5233,3.523,3.5227,3.5455,3.5465,3.5475,0,0,0,0,0,0,0,0,0,0,0,0,0,3.4781,3.4595,3.4994,3.5033,3.5038,3.5215,3.5219,3.5223,3.5236,3.5233,3.5229,3.5225,3.5452,3.5464,3.5476,3.563,0,0,3.5515,3.5521,0,0,0,0,0,0,0,0,3.477,3.4796,3.5024,3.503,3.5037,3.5194,3.5159,3.5359,3.5237,3.5161,3.5228,3.5224,3.5373,3.5392,3.5442,3.5641,3.5651,3.5516,3.5524,3.5529,3.5533,0,0,0,0,0,0,0,3.4756,3.4786,3.5082,3.5028,3.5035,3.504,3.5064,3.5197,3.5286,3.5168,3.5169,3.5195,3.5376,3.543,3.5448,3.5654,3.5516,3.5527,3.5535,3.554,3.599,3.5994,0,0,0,0,0,0,3.4735,3.4775,3.5075,3.5089,3.4891,3.505,3.5077,3.5148,3.5284,3.5302,3.5198,3.5195,3.541,3.5433,3.5456,3.5645,3.5529,3.5541,3.5549,3.5986,3.5991,3.5996,0,0,0,0,0,0,3.4726,3.4761,3.5066,3.4932,3.4971,3.5061,3.5141,3.5154,3.5208,3.5307,3.5323,3.5237,3.5408,3.5438,3.5586,3.5653,3.5547,3.5558,3.598,3.5987,3.5993,3.6024,0,0,0,0,0,0,3.4714,3.4758,3.4817,3.4934,3.4979,3.5193,3.5145,3.5161,3.5229,3.5227,3.5348,3.5364,3.5407,3.5567,3.5599,3.5669,3.5568,3.5975,3.5983,3.5991,3.6017,3.6031,3.6042,0,0,0,0,0,3.4699,3.4817,3.482,3.4856,3.5054,3.5196,3.5222,3.5269,3.5234,3.5295,3.5359,3.536,3.564,3.5582,3.5618,3.5693,3.5971,3.5981,3.5991,3.6012,3.6028,3.6042,0,0,0,0,0,0,3.4707,3.4833,3.4837,3.4996,3.5085,3.5198,3.5276,3.5284,3.5386,3.538,3.5434,3.5461,3.5608,3.5665,3.5598,3.5848,3.5802,3.5819,3.5806,3.5822,3.5834,3.5818,3.5579,0,0,0,0,0,3.4727,3.4831,3.4936,3.5066,3.5111,3.5185,3.5249,3.5277,3.5372,3.541,3.5485,3.5578,3.5687,3.5757,3.5863,3.6025,3.6052,3.6094,3.6106,3.6116,3.6131,3.6221,3.6241,3.6028,3.6028,3.6027,0,0,3.477,3.4851,3.4914,3.507,3.5142,3.525,3.5217,3.5333,3.5413,3.5428,3.5573,3.5631,3.5738,3.5894,3.5966,3.5946,3.6195,3.6128,3.6135,3.6145,3.6233,3.6253,3.6271,3.6034,3.6033,3.6032,0,0,3.4903,3.4975,3.5091,3.5164,3.5273,3.5322,3.535,3.5462,3.5501,3.5647,3.566,3.5757,3.5944,3.6019,3.6082,3.6243,3.6249,3.6276,3.6341,3.6429,3.6446,3.6461,3.6519,3.6539,3.629,3.6291,3.6291,0,3.4942,3.5104,3.515,3.5265,3.5334,3.5351,3.547,3.5538,3.5677,3.5724,3.5699,3.5933,3.6006,3.618,3.622,3.627,3.6304,3.6263,3.6439,3.6455,3.647,3.6526,3.6548,3.6293,3.6293,3.6293,3.6292,0,3.5148,3.526,3.5341,3.5474,3.5551,3.5668,3.5732,3.5804,3.5825,3.5877,3.6026,3.6114,3.6238,3.6281,3.6303,3.6459,3.6443,3.6428,3.6383,3.6492,3.6546,3.6568,3.6297,3.6296,3.6295,3.6295,0,0,3.5293,3.5449,3.5478,3.5538,3.566,3.5748,3.5865,3.5986,3.6048,3.6143,3.6243,3.64,3.6387,3.6458,3.6489,3.6565,3.6688,3.6541,3.6545,3.6566,3.6866,3.6877,3.6902,3.6692,3.6696,3.67,3.6857,0,3.544,3.5648,3.5693,3.5873,3.5978,3.5995,3.6098,3.6184,3.6235,3.6332,3.6389,3.6499,3.6473,3.6516,3.6593,3.6657,3.6749,3.6646,3.6787,3.6791,3.6761,3.693,3.6942,3.7087,3.6879,3.6882,3.6885,0,3.564,3.5739,3.5929,3.6037,3.6083,3.6174,3.6288,3.638,3.6478,3.651,3.6589,3.6612,3.6735,3.6683,3.6854,3.6783,3.6843,3.6883,3.689,3.6906,3.6846,3.6951,3.7134,3.7156,3.6918,3.6916,3.6913,0,3.5727,3.5908,3.6046,3.6097,3.6226,3.629,3.6347,3.6441,3.6511,3.661,3.6656,3.6769,3.6831,3.6919,3.6971,3.6928,3.7139,3.709,3.717,3.7169,3.7215,3.7211,3.7411,3.7251,3.7251,3.725,3.725,0,3.5888,3.6004,3.6087,3.6171,3.6302,3.6352,3.6481,3.6537,3.6621,3.6718,3.674,3.683,3.6893,3.6993,3.7035,3.7171,3.7198,3.7228,3.7238,3.7227,3.7224,3.7269,3.726,3.7256,3.7255,3.7254,3.7253,0,3.6008,3.6068,3.6219,3.6329,3.6359,3.6451,3.6545,3.6629,3.668,3.6802,3.6833,3.6914,3.7032,3.7093,3.724,3.7269,3.7422,3.7425,3.7389,3.7393,3.747,3.7462,3.7706,3.7741,3.7557,3.7558,3.756,0,3.6107,3.6197,3.6316,3.6382,3.644,3.6546,3.6617,3.6669,3.6742,3.6861,3.693,3.7049,3.7147,3.7335,3.7408,3.7521,3.7528,3.7606,3.7545,3.7531,3.7531,3.7525,3.7535,3.7617,3.7619,3.762,3.7621,0,3.6276,3.6302,3.6402,3.6514,3.6598,3.6689,3.6778,3.6831,3.6898,3.6979,3.71,3.7176,3.7326,3.7445,3.7563,3.7623,3.7634,3.7639,3.7664,3.7654,3.763,3.7645,3.7419,3.7634,3.7633,3.7632,3.7631,3.7631,3.639,3.6471,3.6567,3.6679,3.6752,3.6835,3.6919,3.698,3.7081,3.7207,3.7232,3.736,3.7457,3.7617,3.768,3.7781,3.7765,3.78,3.7809,3.7818,3.7822,3.7612,3.7803,3.7802,3.7802,3.7802,3.7802,0,3.6562,3.6624,3.6727,3.6851,3.6939,3.694,3.7039,3.7114,3.7226,3.7314,3.741,3.7549,3.7664,3.7745,3.7862,3.7928,3.7936,3.7957,3.7953,3.7967,3.7829,3.7797,3.7948,3.7948,3.7948,3.7948,3.7948,3.7948,3.6661,3.6798,3.6835,3.7008,3.7071,3.7196,3.7252,3.7329,3.74,3.7554,3.7649,3.7701,3.7787,3.791,3.8016,3.8037,3.808,3.8101,3.8122,3.7992,3.7977,3.7962,3.7932,3.8109,3.811,3.8252,3.8253,3.8254]}]]